Поканаевка

Россия / Красноярский край     56°30′53″N   97°39′35″E
темп.,
°C
ветер,
м/с
пор.,
м/с
влажн.,
%
обл.,
%
осадки,
мм/ч
давл.,
гПа
погр.,
м
15 мая, сб
сб1501:00+3з411845 2.2 1017646
04:00+2зюз3118893 0.0 1017438
07:00+5зюз4127797 0.1 1017766
10:00+8зюз61161100 0.0 10151441
13:00+7зюз61681100 1.8 10131288
16:00+10з71673100 0.7 10121303
19:00+13з71666100 0.7 10101584
22:00+10з51386100 1.7 1010915
16 мая, вс
вс1601:00+9ссз4897100 13.0 1010587
04:00+5с2692100 4.7 1013379
07:00+4с2479100 4.8 1016430
10:00+7сз2464100 0.0 1016910
13:00+8зсз2355100 0.0 1014958
16:00+7сз1266100 0.3 1013810
19:00+4з1286100 1.4 1012451
22:00+3з239658 0.1 101388
17 мая, пн
пн1701:00+1з22965 0.1 101346
04:000з22965 0.0 101427
07:00+4зсз12715 0.0 1014250
10:00+8зсз244677 0.0 10131348
13:00+11зсз463615 0.0 10132265
16:00+12зсз463213 0.0 10122431
19:00+9зсз3844100 0.0 1013373
22:00+5з2560100 0.0 1014102
18 мая, вт
вт1801:00+4зюз256799 0.0 1013122
04:00+4з2667100 0.0 1012156
07:00+6зсз3659100 0.0 1012409
10:00+6зюз2276100 0.1 1010856
13:00+7зюз2379100 0.2 1008745
16:00+7зсз228187 0.1 1007619
19:00+8сз227224 0.2 1006667
22:00+3з229152 0.0 100720
19 мая, ср
ср1901:00+1з229513 0.0 100817
04:00+1зюз1195100 0.0 100810
07:00+5юз0181100 0.0 1007227
10:00+9всв1157100 0.0 10061092
13:00+11всв2243100 0.3 10051714
16:00+12с3332100 0.1 10042296
19:00+9ссв364333 0.1 1006385
22:00+4с2459100 0.0 1008100